This demonstration page uses our WeatherBlox Daily Observations layout. Learn more.

Left ArrowRight Arrow

44.89941, -97.11507

Hourly Observations for October 4, 2022

Temp ( °F °C ) Dew Point ( °F °C ) Humidity (%) Winds ( mph kmh ) Pressure ( in mb ) Visibility ( mi km ) Precip ( " mm )
12:53 am 00:53 Cloudy 57 13.9 56 13.3 96 96 VRB 3 6 30.12 1020 10 16 0.00 0.00
1:53 am 01:53 Cloudy 58 14.4 56 13.3 93 93 SSE 3 6 30.09 1019 10 16 0.00 0.00
2:53 am 02:53 Cloudy 57 13.9 55 12.8 93 93 SSE 5 7 30.08 1019 10 16 0.00 0.00
3:53 am 03:53 Cloudy 59 15 54 12.2 83 83 S 8 13 30.07 1018 10 16 0.00 0.00
4:53 am 04:53 Mostly Cloudy 56 13.3 53 11.7 90 90 S 7 11 30.06 1018 10 16 0.00 0.00
5:53 am 05:53 Partly Cloudy 56 13.3 53 11.7 90 90 S 7 11 30.06 1018 10 16 0.00 0.00
6:53 am 06:53 Mostly Cloudy 55 12.8 53 11.7 93 93 Calm 30.08 1019 10 16 0.00 0.00
7:53 am 07:53 Sunny 55 12.8 53 11.7 93 93 Calm 30.07 1018 10 16 0.00 0.00
8:53 am 08:53 Cloudy 55 12.8 53 11.7 93 93 Calm 30.08 1019 10 16 0.00 0.00
9:53 am 09:53 Cloudy 58 14.4 55 12.8 90 90 SSE 6 9 30.08 1019 10 16 0.00 0.00
10:53 am 10:53 Cloudy 59 15 55 12.8 87 87 Calm 30.07 1018 10 16 0.01 0.13
11:53 am 11:53 Cloudy 62 16.7 56 13.3 80 80 S 6 9 30.07 1018 10 16 0.01 0.25
12:53 pm 12:53 Mostly Sunny 65 18.3 55 12.8 70 70 S 3 6 30.05 1018 10 16 0.00 0.00
1:53 pm 13:53 Cloudy with Rain 61 16.1 55 12.8 81 81 SW 8 13 30.05 1018 5 8 0.02 0.51
2:53 pm 14:53 Cloudy with Light Rain 59 15 57 13.9 93 93 Calm 30.04 1017 4 6 0.07 1.78
3:53 pm 15:53 Cloudy 60 15.6 58 14.4 93 93 SSE 7 11 30.03 1017 10 16 0.01 0.25
4:07 pm 16:07 Cloudy 60 15.6 58 14.4 93 93 SSE 8 13 30.00 1016 10 16 0.00 0.00
4:53 pm 16:53 Cloudy 60 15.6 58 14.4 93 93 S 7 11 30.04 1017 10 16 0.00 0.00
5:01 pm 17:01 Cloudy 60 15.6 58 14.4 93 93 S 6 9 30.01 1016 10 16 0.00 0.00
5:30 pm 17:30 Cloudy 61 16.1 59 15 93 93 S 3 6 30.00 1016 10 16 0.00 0.00
5:53 pm 17:53 Mostly Cloudy 61 16.1 58 14.4 90 90 SSE 7 11 30.03 1017 10 16 0.00 0.00
6:12 pm 18:12 Cloudy 61 16.1 59 15 93 93 SSE 7 11 30.00 1016 10 16 0.00 0.00
6:17 pm 18:17 Cloudy 61 16.1 58 14.4 90 90 SSE 6 9 30.00 1016 10 16 0.00 0.00
6:26 pm 18:26 Cloudy 61 16.1 59 15 93 93 S 6 9 30.00 1016 10 16 0.00 0.00
6:37 pm 18:37 Cloudy 60 15.6 58 14.4 93 93 S 6 9 30.00 1016 10 16 0.00 0.00
6:48 pm 18:48 Cloudy 61 16 57 14 88 88 S 6 9 30.00 1016 10 16 0.00 0.00
6:53 pm 18:53 Cloudy 60 15.6 58 14.4 93 93 S 5 7 30.03 1017 10 16 0.00 0.00
7:53 pm 19:53 Clear 56 13.3 56 13.3 100 100 S 5 7 30.03 1017 7 11 0.00 0.00
8:26 pm 20:26 Clear with Mist and Fog 56 13.3 55 12.8 97 97 S 3 6 30.02 1017 2 3 0.00 0.00
8:29 pm 20:29 Clear with Mist and Fog 55 12.8 55 12.8 100 100 S 3 6 30.02 1017 1 1 0.00 0.00
8:40 pm 20:40 Clear with Fog 55 12.8 55 12.8 100 100 S 3 6 30.02 1017 0 0 0.00 0.00
8:53 pm 20:53 Mostly Clear with Fog 53 11.7 53 11.7 100 100 Calm 30.04 1017 1 1 0.00 0.00
9:00 pm 21:00 Mostly Clear with Mist and Fog 54 12.2 53 11.7 97 97 Calm 30.02 1017 1 1 0.00 0.00
9:20 pm 21:20 Mostly Cloudy with Mist and Fog 55 12.8 55 12.8 100 100 S 3 6 30.02 1017 3 5 0.00 0.00
9:27 pm 21:27 Partly Cloudy with Mist and Fog 54 12.2 54 12.2 100 100 Calm 30.02 1017 2 3 0.00 0.00
9:30 pm 21:30 Partly Cloudy with Mist and Fog 53 11.7 53 11.7 100 100 Calm 30.03 1017 1 2 0.00 0.00
9:32 pm 21:32 Partly Cloudy with Mist and Fog 54 12.2 54 12.2 100 100 Calm 30.02 1017 1 1 0.00 0.00
9:37 pm 21:37 Mostly Cloudy with Fog 54 12.2 54 12.2 100 100 Calm 30.02 1017 0 0 0.00 0.00
9:51 pm 21:51 Mostly Clear with Fog 54 12 54 12 100 100 S 3 6 30.03 1017 0 0 0.00 0.00
9:53 pm 21:53 Mostly Cloudy with Fog 53 11.7 53 11.7 100 100 S 3 6 30.04 1017 0 0 0.00 0.00
10:22 pm 22:22 Mostly Cloudy with Fog 54 12.2 54 12.2 100 100 SW 5 7 30.04 1017 1 1 0.00 0.00
10:36 pm 22:36 Partly Cloudy with Mist and Fog 54 12.2 54 12.2 100 100 WNW 7 11 30.04 1017 4 6 0.00 0.00
10:53 pm 22:53 Mostly Clear 54 12.2 54 12.2 100 100 WNW 5 7 30.04 1017 7 11 0.00 0.00
11:23 pm 23:23 Clear with Mist and Fog 53 11.7 53 11.7 100 100 Calm 30.04 1017 2 3 0.00 0.00
11:28 pm 23:28 Mostly Clear with Mist and Fog 53 11.7 52 11.1 96 96 Calm 30.04 1017 1 1 0.00 0.00
11:40 pm 23:40 Mostly Clear with Fog 52 11.1 52 11.1 100 100 Calm 30.04 1017 0 0 0.00 0.00
11:53 pm 23:53 Mostly Clear with Fog 50 10 50 10 100 100 WSW 7 11 30.05 1018 0 0 0.00 0.00

Powered by AerisWeather